#timestamp,LO_Frequency,Hit,StdDev 
1571540415.1,286046992.5,N
1571540435.9,286046994.3,N
1571540455.7,286046993.3,N
1571540475.5,286046994.1,N
1571540495.4,286046995.1,N
1571540515.2,286046997.8,N
1571540535.1,286046994.0,N
1571540536.0,286046994.0,Y
1571540555.8,286046999.6,P
1571540575.6,286046999.9,N
1571540595.5,286047001.6,N
1571540615.3,286047003.9,N
1571540635.2,286047004.2,N
1571540655.9,286047002.2,N
1571540675.7,286047001.3,N
1571540695.6,286046998.1,N
1571540715.4,286046998.5,N
1571540735.2,286046995.3,N
1571540755.1,286046994.1,N
1571540756.0,286046994.1,N
1571540775.8,286046997.6,N
1571540795.7,286046996.1,N
1571540815.5,286046995.2,N
1571540835.3,286046997.2,N
1571540855.2,286046995.1,N
1571540875.0,286046998.6,N
1571540875.9,286046998.6,N
1571540895.7,286046999.2,N
1571540915.6,286046993.4,N
1571540935.4,286046993.9,N
1571540955.3,286046992.0,N
1571540975.1,286046993.6,N
1571540976.0,286046993.6,N
1571540995.8,286046993.7,N
1571541015.7,286046994.9,N
1571541035.5,286047000.4,N
1571541055.3,286047001.8,N
1571541075.2,286046999.7,N
1571541095.0,286046998.8,N
1571541095.9,286046998.8,N
1571541115.8,286046999.2,N
1571541135.6,286047001.0,N
1571541155.4,286046999.8,N
1571541175.3,286047002.1,N
1571541195.1,286047000.8,N
1571541215.8,286047001.2,N
1571541235.7,286046997.5,N
1571541255.5,286046996.5,N
1571541275.4,286046997.4,N
1571541295.2,286046998.2,N
1571541315.0,286046997.8,N
1571541315.9,286046997.8,N
1571541335.8,286046995.9,N
1571541355.6,286046996.8,N
1571541375.5,286046997.2,N
1571541395.3,286046999.3,N
1571541415.1,286046998.7,N
1571541435.9,286046997.1,N
1571541455.7,286046998.8,N
1571541475.5,286046999.1,N
1571541495.4,286046996.6,N
1571541515.2,286046997.0,N
1571541535.1,286046996.7,N
1571541536.0,286046996.7,N
1571541555.8,286046997.8,N
1571541575.6,286046997.5,N
1571541595.5,286046996.9,N
1571541615.3,286046996.5,N
1571541635.1,286046995.3,Y
1571541655.9,286046999.4,P
1571541675.7,286046996.9,P
1571541695.6,286046997.4,N
1571541715.4,286046997.2,N
1571541735.2,286046997.4,N
1571541755.1,286047001.0,N
1571541756.0,286047001.0,N
1571541775.8,286047000.5,N
1571541795.7,286047004.1,N
1571541815.5,286046999.9,N
1571541835.3,286047000.2,N
1571541855.2,286047000.6,N
1571541875.0,286047004.4,N
1571541875.9,286047004.4,N
1571541895.7,286047003.5,N
1571541915.6,286047003.4,N
1571541935.4,286047002.4,N
1571541955.3,286047002.5,N
1571541975.1,286047001.4,N
1571541976.0,286047001.4,N
1571541995.8,286047001.8,N
1571542015.7,286047001.3,N
1571542035.5,286047000.1,N
1571542055.3,286047001.9,N
1571542075.2,286047005.5,N
1571542095.0,286047004.5,N
1571542095.9,286047004.5,N
1571542115.8,286047005.1,N
1571542135.6,286047004.9,N
1571542155.4,286047006.7,N
1571542175.3,286047008.0,Y
1571542195.1,286047006.8,P
1571542215.9,286047004.6,N
1571542235.7,286047006.6,P
1571542255.5,286047007.4,Y
1571542275.4,286047000.7,P
1571542295.2,286046998.4,N
1571542315.0,286047001.1,N
1571542316.0,286047001.1,N
1571542335.8,286047000.4,N
1571542355.6,286047000.1,N
1571542375.5,286047002.2,N
1571542395.3,286047001.3,N
1571542415.1,286047003.8,N
1571542435.9,286047003.0,N
1571542455.7,286047001.5,N
1571542475.6,286046999.7,N
1571542495.4,286047002.6,N
1571542515.2,286047000.9,N
1571542535.1,286047000.4,N
1571542536.0,286047000.4,N
1571542555.8,286046999.3,N
1571542575.6,286046998.4,N
1571542595.5,286046999.3,N
1571542615.3,286047001.0,N
1571542635.2,286046996.9,N
1571542655.9,286046995.0,N
1571542675.7,286046995.0,N
1571542695.6,286046996.6,N
1571542715.4,286046996.7,N
1571542735.2,286046996.6,N
1571542755.1,286046995.0,N
1571542756.0,286046995.0,N
1571542775.8,286046997.2,N
1571542795.7,286046997.8,N
1571542815.5,286046995.7,N
1571542835.3,286046995.8,N
1571542855.2,286046997.1,N
1571542875.0,286046999.3,N
1571542875.9,286046999.3,N
1571542895.8,286047001.1,N
1571542915.6,286046999.0,N
1571542935.4,286046996.6,N
1571542955.3,286046999.2,N
1571542975.1,286046999.3,N
1571542995.8,286047002.0,N
1571543015.7,286047000.4,N
1571543035.5,286047001.2,N
1571543055.4,286046999.4,N
1571543075.2,286046999.0,N
1571543095.0,286046995.1,N
1571543095.9,286046995.1,N
1571543115.8,286046996.2,N
1571543135.6,286046993.8,N
1571543155.5,286046992.2,Y
1571543175.3,286046994.9,P
1571543195.1,286046995.8,P
1571543215.9,286046998.3,N
1571543235.7,286047000.2,N
1571543255.5,286047000.8,N
1571543275.4,286046998.2,N
1571543295.2,286046999.1,N
1571543315.1,286046995.4,N
1571543316.0,286046995.4,N
1571543335.8,286046996.3,N
1571543355.6,286046997.2,N
1571543375.5,286046995.7,N
1571543395.3,286046998.0,N
1571543415.2,286046995.5,N
1571543435.9,286046997.1,N
1571543455.7,286046995.1,N
1571543475.6,286046996.2,N
1571543495.4,286046994.3,Y
1571543515.3,286046996.1,P
1571543535.1,286046995.8,P
1571543536.0,286046995.8,P
1571543555.8,286046994.0,Y
1571543575.7,286046997.0,P
1571543595.5,286046997.3,P
1571543615.3,286046997.7,P
1571543635.2,286046997.6,Y
1571543655.0,286046996.5,P
1571543655.9,286046996.5,P
1571543675.8,286046996.6,P
1571543695.6,286046996.7,Y
1571543715.4,286047001.0,P
1571543735.3,286047002.3,N
1571543755.1,286047000.2,N
1571543775.9,286046999.7,N
1571543795.7,286047002.7,N
1571543815.5,286047001.6,N
1571543835.4,286047003.9,N
1571543855.2,286047007.3,Y
1571543875.1,286047008.4,P
1571543876.0,286047008.4,N
1571543895.8,286047004.6,N
1571543915.6,286047009.1,N
1571543935.5,286047008.8,N
1571543955.3,286047008.3,N
1571543975.1,286047009.0,Y
1571543995.9,286047000.7,P
